Weather History for Bentonville, AR

Change the Weather History Date:

Wednesday, November 20, 2013

  Actual Average Record
Temperature  
Mean Temperature 50 °F -  
Max Temperature 59 °F 58 °F 74 °F (1949)
Min Temperature 42 °F 35 °F 17 °F (1968)
Degree Days  
Heating Degree Days 14    
Moisture  
Dew Point 25 °F    
Average Humidity 35    
Maximum Humidity 53    
Minimum Humidity 20    
Precipitation  
Precipitation 0.02 in - - ()
Sea Level Pressure  
Sea Level Pressure 29.98 in    
Wind  
Wind Speed 10 mph (SSE)    
Max Wind Speed 20 mph    
Max Gust Speed 26 mph    
Visibility 10 miles    
Events      
Averages and records for this station are not official NWS values.
T = Trace of Precipitation, MM = Missing Value Source: NWS Daily Summary

Daily Weather History Graph

Daily Weather History Graph

Search for Another Location

Airport:

Trip Planner

Search our weather history database for the weather conditions in past years. The results will help you decide how hot, cold, wet, or windy it might be!

Date:

Astronomy

Nov. 20, 2013 Rise Set
Actual Time 6:59 AM CST 5:05 PM CST
Civil Twilight 6:31 AM CST 5:33 PM CST
Nautical Twilight 6:00 AM CST 6:04 PM CST
Astronomical Twilight 5:29 AM CST 6:35 PM CST
Moon 7:49 PM CST (11/20) 9:24 AM CST (11/20)
Length of Visible Light 11h 01m
Length of Day
10h 06m
Waning Gibbous, 91% of the Moon is Illuminated
Nov 20
Waning Gibbous
Nov 25
Last Quarter
Dec 2
New
Dec 9
First Quarter
Dec 17
Full

Hourly Weather History & Observations

Time (CST) Temp. Windchill Dew Point Humidity Pressure Visibility Wind Dir Wind Speed Gust Speed Precip Events Conditions
12:15 AM 48.2 °F - 14.0 °F 25% 30.05 in 10.0 mi SE 8.1 mph - N/A   Mostly Cloudy
12:35 AM 48.2 °F - 14.0 °F 25% 30.05 in 10.0 mi SE 8.1 mph - N/A   Mostly Cloudy
12:55 AM 48.2 °F - 12.2 °F 24% 30.05 in 10.0 mi SE 9.2 mph - N/A   Overcast
1:15 AM 50.0 °F - 12.2 °F 22% 30.05 in 10.0 mi SSE 12.7 mph - N/A   Overcast
1:35 AM 50.0 °F - 10.4 °F 20% 30.04 in 10.0 mi SSE 13.8 mph 18.4 mph N/A   Overcast
1:55 AM 50.0 °F - 10.4 °F 20% 30.04 in 10.0 mi SE 12.7 mph 16.1 mph N/A   Mostly Cloudy
2:15 AM 48.2 °F - 12.2 °F 24% 30.04 in 10.0 mi SE 9.2 mph - N/A   Scattered Clouds
2:35 AM 48.2 °F - 10.4 °F 22% 30.03 in 10.0 mi SE 10.4 mph - N/A   Overcast
2:55 AM 50.0 °F - 10.4 °F 20% 30.05 in 10.0 mi SSE 8.1 mph - N/A   Mostly Cloudy
3:15 AM 48.2 °F - 10.4 °F 22% 30.03 in 10.0 mi SE 10.4 mph - N/A   Partly Cloudy
3:35 AM 44.6 °F 41.4 °F 23.0 °F 43% 30.04 in 9.0 mi South 5.8 mph - 0.01 in   Mostly Cloudy
3:55 AM 44.6 °F 39.7 °F 24.8 °F 46% 30.02 in 10.0 mi ESE 9.2 mph - 0.02 in   Mostly Cloudy
4:15 AM 44.6 °F 38.4 °F 24.8 °F 46% 30.02 in 10.0 mi SE 12.7 mph - N/A   Overcast
4:35 AM 42.8 °F 35.8 °F 26.6 °F 53% 30.00 in 10.0 mi SE 13.8 mph - N/A   Mostly Cloudy
4:55 AM 42.8 °F 36.2 °F 24.8 °F 49% 30.00 in 10.0 mi SE 12.7 mph - N/A   Scattered Clouds
5:15 AM 42.8 °F 35.8 °F 26.6 °F 53% 30.00 in 10.0 mi SE 13.8 mph - N/A   Mostly Cloudy
5:35 AM 44.6 °F 38.1 °F 24.8 °F 46% 30.00 in 10.0 mi SE 13.8 mph - N/A   Mostly Cloudy
5:55 AM 44.6 °F 38.1 °F 24.8 °F 46% 29.99 in 10.0 mi SE 13.8 mph - N/A   Overcast
6:15 AM 44.6 °F 38.4 °F 23.0 °F 43% 29.99 in 10.0 mi SE 12.7 mph 19.6 mph N/A   Overcast
6:35 AM 44.6 °F 39.2 °F 23.0 °F 43% 29.99 in 10.0 mi SSE 10.4 mph - N/A   Mostly Cloudy
6:55 AM 44.6 °F 39.7 °F 21.2 °F 39% 29.99 in 10.0 mi SE 9.2 mph - N/A   Mostly Cloudy
7:15 AM 44.6 °F 39.2 °F 23.0 °F 43% 30.00 in 10.0 mi SE 10.4 mph - N/A   Mostly Cloudy
7:35 AM 44.6 °F 40.2 °F 23.0 °F 43% 30.00 in 10.0 mi SE 8.1 mph - N/A   Overcast
7:55 AM 44.6 °F 39.2 °F 23.0 °F 43% 30.01 in 10.0 mi SE 10.4 mph - N/A   Overcast
8:15 AM 46.4 °F 41.9 °F 23.0 °F 40% 30.01 in 10.0 mi SE 9.2 mph - N/A   Overcast
8:35 AM 46.4 °F 41.1 °F 23.0 °F 40% 30.00 in 10.0 mi SSE 11.5 mph 17.3 mph N/A   Overcast
8:55 AM 46.4 °F 42.4 °F 23.0 °F 40% 30.01 in 10.0 mi SSE 8.1 mph - N/A   Overcast
9:15 AM 48.2 °F - 24.8 °F 40% 30.01 in 10.0 mi SSE 9.2 mph - N/A   Overcast
9:35 AM 50.0 °F - 23.0 °F 35% 30.01 in 10.0 mi SSE 10.4 mph - N/A   Overcast
9:55 AM 51.8 °F - 23.0 °F 33% 30.02 in 10.0 mi SSE 8.1 mph - N/A   Mostly Cloudy
10:15 AM 51.8 °F - 24.8 °F 35% 30.01 in 10.0 mi SSE 10.4 mph - N/A   Scattered Clouds
10:35 AM 57.2 °F - 23.0 °F 27% 30.00 in 10.0 mi SSE 17.3 mph 23.0 mph N/A   Clear
10:55 AM 55.4 °F - 19.4 °F 25% 30.00 in 10.0 mi South 19.6 mph 26.5 mph N/A   Clear
11:15 AM 55.4 °F - 21.2 °F 26% 29.99 in 10.0 mi South 10.4 mph 19.6 mph N/A   Clear
11:35 AM 57.2 °F - 21.2 °F 25% 29.97 in 10.0 mi South 16.1 mph 23.0 mph N/A   Clear
11:55 AM 57.2 °F - 21.2 °F 25% 29.97 in 10.0 mi South 15.0 mph 23.0 mph N/A   Clear
12:15 PM 57.2 °F - 19.4 °F 23% 29.96 in 10.0 mi South 15.0 mph 19.6 mph N/A   Clear
12:35 PM 59.0 °F - 21.2 °F 23% 29.95 in 10.0 mi SSW 16.1 mph 19.6 mph N/A   Clear
12:55 PM 57.2 °F - 21.2 °F 25% 29.94 in 10.0 mi SSW 15.0 mph 23.0 mph N/A   Clear
1:15 PM 57.2 °F - 23.0 °F 27% 29.94 in 10.0 mi South 15.0 mph 23.0 mph N/A   Clear
1:35 PM 57.2 °F - 24.8 °F 29% 29.93 in 10.0 mi South 15.0 mph - N/A   Clear
1:55 PM 57.2 °F - 24.8 °F 29% 29.92 in 10.0 mi South 13.8 mph 20.7 mph N/A   Clear
2:15 PM 57.2 °F - 26.6 °F 31% 29.92 in 10.0 mi South 10.4 mph - N/A   Clear
2:35 PM 59.0 °F - 28.4 °F 31% 29.91 in 10.0 mi South 10.4 mph 16.1 mph N/A   Clear
2:55 PM 59.0 °F - 26.6 °F 29% 29.91 in 10.0 mi South 11.5 mph - N/A   Clear
3:15 PM 57.2 °F - 26.6 °F 31% 29.91 in 10.0 mi South 10.4 mph 16.1 mph N/A   Clear
3:35 PM 57.2 °F - 26.6 °F 31% 29.91 in 10.0 mi South 10.4 mph - N/A   Scattered Clouds
3:55 PM 57.2 °F - 26.6 °F 31% 29.92 in 10.0 mi South 11.5 mph 16.1 mph N/A   Mostly Cloudy
4:15 PM 57.2 °F - 28.4 °F 33% 29.92 in 10.0 mi SSE 9.2 mph - N/A   Scattered Clouds
4:35 PM 55.4 °F - 28.4 °F 36% 29.92 in 10.0 mi SE 6.9 mph - N/A   Mostly Cloudy
4:55 PM 55.4 °F - 28.4 °F 36% 29.93 in 10.0 mi SSE 8.1 mph - N/A   Overcast
5:15 PM 57.2 °F - 28.4 °F 33% 29.93 in 10.0 mi SSE 10.4 mph - N/A   Overcast
5:35 PM 57.2 °F - 28.4 °F 33% 29.93 in 10.0 mi SSE 11.5 mph - N/A   Mostly Cloudy
5:55 PM 55.4 °F - 28.4 °F 36% 29.94 in 10.0 mi SSE 12.7 mph - N/A   Scattered Clouds
6:15 PM 57.2 °F - 28.4 °F 33% 29.94 in 10.0 mi SSE 10.4 mph - N/A   Overcast
6:35 PM 57.2 °F - 28.4 °F 33% 29.95 in 10.0 mi SSE 8.1 mph - N/A   Overcast
6:55 PM 55.4 °F - 28.4 °F 36% 29.95 in 10.0 mi SSE 8.1 mph - N/A   Overcast
7:15 PM 55.4 °F - 28.4 °F 36% 29.94 in 10.0 mi SSE 9.2 mph - N/A   Overcast
7:35 PM 55.4 °F - 28.4 °F 36% 29.95 in 10.0 mi SSE 6.9 mph - N/A   Overcast
7:55 PM 55.4 °F - 30.2 °F 38% 29.96 in 10.0 mi SSE 4.6 mph - N/A   Overcast
8:15 PM 55.4 °F - 30.2 °F 38% 29.96 in 10.0 mi SSE 5.8 mph - N/A   Overcast
8:35 PM 55.4 °F - 30.2 °F 38% 29.97 in 10.0 mi SSE 3.5 mph - N/A   Overcast
8:55 PM 55.4 °F - 30.2 °F 38% 29.98 in 10.0 mi South 3.5 mph - N/A   Overcast
9:15 PM 55.4 °F - 33.8 °F 44% 29.98 in 10.0 mi SSE 3.5 mph - N/A   Overcast
9:35 PM 55.4 °F - 33.8 °F 44% 29.98 in 10.0 mi SSE 4.6 mph - N/A   Overcast
9:55 PM 55.4 °F - 33.8 °F 44% 29.98 in 10.0 mi SE 3.5 mph - N/A   Overcast
10:15 PM 55.4 °F - 35.6 °F 47% 29.98 in 10.0 mi SE 3.5 mph - N/A   Overcast
10:35 PM 55.4 °F - 35.6 °F 47% 29.98 in 10.0 mi South 6.9 mph - N/A   Overcast
10:55 PM 57.2 °F - 37.4 °F 48% 29.98 in 10.0 mi South 4.6 mph - N/A   Overcast
11:15 PM 57.2 °F - 37.4 °F 48% 29.99 in 10.0 mi South 6.9 mph - N/A   Overcast
11:35 PM 57.2 °F - 37.4 °F 48% 29.99 in 10.0 mi South 9.2 mph - N/A   Overcast
11:55 PM 57.2 °F - 37.4 °F 48% 29.99 in 10.0 mi South 6.9 mph - N/A   Overcast